Overview Statistics Trail Chart Weather Telemetry Raw packets
 

This is the latest recevied weather packets stored in our database for station/object WA9NNN-10. If no packets are shown the sender has not sent any weather packets the latest 10 day(s).

<< 27 28 29 30 31 32 33 >>
Time Temp. Humidity Pressure Rain* Wind** Luminosity Snow
1788468210 30° C 61% 1013.5 hPa 0 mm - - -
1788467911 30.56° C 59% 1013.6 hPa 0 mm - - -
1788467611 31.11° C 57% 1013.7 hPa 0 mm - - -
1788467311 31.67° C 55% 1013.5 hPa 0 mm - - -
1788467010 32.78° C 53% 1013.6 hPa 0 mm - - -
1788466711 33.89° C 52% 1013.5 hPa 0 mm - - -
1788466411 34.44° C 51% 1013.2 hPa 0 mm - - -
1788466111 34.44° C 50% 1013.2 hPa 0 mm - - -
1788465811 35° C 49% 1013.3 hPa 0 mm - - -
1788465512 35° C 49% 1013.3 hPa 0 mm - - -
1788465211 35° C 50% 1013.3 hPa 0 mm - - -
1788464912 35° C 51% 1013.5 hPa 0 mm - - -
1788464610 34.44° C 52% 1013.5 hPa 0 mm - - -
1788464311 33.89° C 53% 1013.4 hPa 0 mm - - -
1788464010 33.33° C 54% 1013.6 hPa 0 mm - - -
1788463711 33.33° C 52% 1013.6 hPa 0 mm - - -
1788463410 33.33° C 54% 1013.6 hPa 0 mm - - -
1788463111 33.33° C 53% 1013.6 hPa 0 mm - - -
1788462811 33.33° C 54% 1013.7 hPa 0 mm - - -
1788462511 32.78° C 55% 1013.8 hPa 0 mm - - -
1788462210 32.22° C 59% 1013.9 hPa 0 mm - - -
1788461911 31.11° C 60% 1014 hPa 0 mm - - -
1788461610 31.11° C 60% 1014 hPa 0 mm - - -
1788461311 31.11° C 60% 1014 hPa 0 mm - - -
1788461011 31.11° C 60% 1014.1 hPa 0 mm - - -

* Rain latest hour (hover to see other rain measurements)
** Current wind speed in m/s (hover to see current wind gust speed)